Saipan, MP

4:55 AM ChST on June 27, 2017 (GMT +1000)
Saipan International

Weather History for PGSN - January, 2012

Change the Weather History Date:

Friday, January 20, 2012

  Actual Average Record
Temperature  
Mean Temperature 78 °F -  
Max Temperature 82 °F 82 °F 96 °F (2015)
Min Temperature 73 °F 74 °F 73 °F (2000)
Cooling Degree Days 12    
Growing Degree Days 28 (Base 50)    
Moisture  
Dew Point 74 °F    
Average Humidity 87    
Maximum Humidity 100    
Minimum Humidity 69    
Precipitation  
Precipitation 0.05 in - - ()
Sea Level Pressure  
Sea Level Pressure 29.85 in    
Wind  
Wind Speed 4 mph (ENE)    
Max Wind Speed 13 mph    
Max Gust Speed 17 mph    
Visibility 10 miles    
Events      
Averages and records for this station are not official NWS values.
T = Trace of Precipitation, MM = Missing Value Source: NWS Daily Summary

Daily Weather History Graph

Daily Weather History Graph

Search for Another Location

Airport or City:

Trip Planner

Search our weather history database for the weather conditions in past years. The results will help you decide how hot, cold, wet, or windy it might be!

Date:

Astronomy

Jan. 20, 2012 Rise Set
Actual Time 6:47 AM ChST 6:08 PM ChST
Civil Twilight 6:24 AM ChST 6:31 PM ChST
Nautical Twilight 5:57 AM ChST 6:57 PM ChST
Astronomical Twilight 5:31 AM ChST 7:23 PM ChST
Moon 3:35 AM ChST (1/20) 3:10 PM ChST (1/20)
Length of Visible Light 12h 07m
Length of Day
11h 21m
Waning Crescent, 13% of the Moon is Illuminated
Jan 20
Waning Crescent
Jan 23
New
Jan 31
First Quarter
Feb 8
Full
Feb 15
Last Quarter

Hourly Weather History & Observations

Time (ChST) Temp. Heat Index Dew Point Humidity Pressure Visibility Wind Dir Wind Speed Gust Speed Precip Events Conditions
12:01 AM 75.2 °F - 73.4 °F 94% 29.84 in 10.0 mi ENE 3.5 mph - N/A   Overcast
12:08 AM 75.2 °F - 73.4 °F 94% 29.84 in 10.0 mi ENE 3.5 mph - N/A   Overcast
12:54 AM 75.0 °F - 73.0 °F 94% 29.89 in 10.0 mi Calm Calm - 0.05 in   Partly Cloudy
1:54 AM 73.9 °F - 73.0 °F 97% 29.87 in 10.0 mi Calm Calm - N/A   Partly Cloudy
2:54 AM 73.9 °F - 73.9 °F 100% 29.85 in 10.0 mi North 3.5 mph - N/A   Partly Cloudy
3:54 AM 75.0 °F - 73.9 °F 96% 29.84 in 10.0 mi Calm Calm - N/A   Partly Cloudy
4:54 AM 73.9 °F - 73.0 °F 97% 29.84 in 10.0 mi NE 5.8 mph - N/A   Partly Cloudy
5:54 AM 73.9 °F - 73.0 °F 97% 29.85 in 10.0 mi Calm Calm - N/A   Partly Cloudy
6:54 AM 75.0 °F - 73.9 °F 96% 29.86 in 10.0 mi Calm Calm - N/A   Scattered Clouds
7:54 AM 78.1 °F - 75.0 °F 90% 29.89 in 10.0 mi North 4.6 mph - N/A   Scattered Clouds
8:54 AM 79.0 °F - 75.0 °F 88% 29.90 in 10.0 mi ENE 8.1 mph - N/A   Scattered Clouds
9:54 AM 80.1 °F 84.5 °F 73.9 °F 81% 29.91 in 10.0 mi ENE 5.8 mph - N/A   Mostly Cloudy
10:54 AM 82.0 °F 86.3 °F 71.1 °F 69% 29.90 in 10.0 mi East 8.1 mph - N/A   Scattered Clouds
11:54 AM 82.9 °F 89.4 °F 73.9 °F 74% 29.87 in 10.0 mi East 10.4 mph - N/A   Scattered Clouds
12:54 PM 82.0 °F 87.9 °F 73.9 °F 76% 29.85 in 10.0 mi East 9.2 mph - N/A   Scattered Clouds
1:54 PM 82.0 °F 88.6 °F 75.0 °F 79% 29.83 in 10.0 mi East 12.7 mph - N/A   Mostly Cloudy
2:54 PM 82.0 °F 87.4 °F 73.0 °F 74% 29.81 in 10.0 mi ESE 8.1 mph 17.3 mph N/A   Scattered Clouds
3:54 PM 82.0 °F 87.4 °F 73.0 °F 74% 29.81 in 10.0 mi ESE 8.1 mph - N/A   Scattered Clouds
4:02 PM 82.4 °F 88.2 °F 73.4 °F 74% 29.75 in 10.0 mi East 10.4 mph - N/A   Overcast
4:09 PM 82.4 °F 88.2 °F 73.4 °F 74% 29.75 in 10.0 mi ESE 9.2 mph - N/A   Overcast
4:54 PM 81.0 °F 85.8 °F 73.0 °F 77% 29.82 in 10.0 mi East 10.4 mph - N/A   Overcast
5:54 PM 80.1 °F 84.5 °F 73.9 °F 81% 29.83 in 10.0 mi East 6.9 mph - N/A   Overcast
6:54 PM 78.1 °F - 75.0 °F 90% 29.84 in 10.0 mi ENE 8.1 mph - N/A   Scattered Clouds
7:54 PM 75.9 °F - 73.9 °F 94% 29.85 in 10.0 mi NE 4.6 mph - N/A   Scattered Clouds
8:54 PM 75.9 °F - 73.9 °F 94% 29.86 in 10.0 mi Calm Calm - N/A   Partly Cloudy
9:54 PM 75.0 °F - 73.0 °F 94% 29.88 in 10.0 mi Calm Calm - N/A   Scattered Clouds
10:54 PM 73.9 °F - 72.0 °F 93% 29.88 in 10.0 mi ENE 4.6 mph - N/A   Partly Cloudy
11:54 PM 73.9 °F - 73.0 °F 97% 29.87 in 10.0 mi East 3.5 mph - N/A   Scattered Clouds